Terug naar catalogus

BREEZE-M DEB

LostMEO
NORAD 41543·DEBRIS·🇷🇺 Russia

Gelanceerd Dec 13, 2015 vanaf Baikonur Cosmodrome

Loading…

Volgende Passages (komende 24 uur)

TLE

VerouderdSource: Space-Track

Epoch: May 12, 2026, 01:22 UTC

1 41543U 15075D   26132.05714814 -.00000029  00000-0  00000-0 0  9991
2 41543   8.3369  59.2363 0241348 159.4997 201.3963  1.05300587 39704

Volg BREEZE-M DEB in realtime met AllMySat

Download on the App Store